Location: Dannhausen
(51.8650°N, 10.1026°E)
Time: 03:44:57
(UTC+00:00)

Cosmos 540 Rocket - Pass Details

Date: 09 April 2020
Orbit: 741 x 753 km, 74.1° (Epoch: 01 June)

Event Time Altitude Azimuth Distance (km) Brightness Sun altitude
Rises 21:26:20 0° 330° (NNW) 3,214 8.1 -25.3°
Reaches altitude 10° 21:28:50 10° 323° (NW) 2,284 7.0 -25.5°
Maximum altitude 21:33:36 39° 256° (WSW) 1,115 4.4 -25.9°
Enters shadow 21:34:19 37° 236° (SW) 1,153 4.3 -25.9°
